Showing default

NOVASAR 1, 43619

Orbit data source: Space-Track

NOVASAR 1, 43619 is a payload satellite owned by SSTL (Astrium) (UK) in SSO that was launched on Sun, 16 Sep 2018 UTC via a PSLV launch vehicle from the Sirharikota (SRI). Payload-class satellites include a variety of spacecraft equipped with specific instruments for various scientific and technological missions. These include communications satellites like Starlink; space stations such as the ISS; scientific satellites like the Hubble; Earth observation satellites from companies like Planet Labs, Umbra, and HawkEye 360; GPS; miniature CubeSats for education and research; and military/defense satellites.

Loading next visibility...
Identifier
43619, 2018-071B
Orbit
SSO
Last TLE update
7 hours ago
Origin
Manufacturer
SSTL (Astrium)
Mission
Operational Commercial Imaging
Bus & Motor
NOVASAR-S, XE
Mass
445 kg wet, 400 kg dry
Launch date (UTC)
2018-09-16 (7 years ago)
Launch vehicle
PSLV
Launch site
Sirharikota (SRI)
Object type
Payload
Rocket body
Debris
Shape & HBR
Tri Box, 3 m
Radar Cross Section
3.500 m², Large (>1 m²)

Expand to show TLE details & history

TLE from 7 hours ago
0 NOVASAR 1
1 43619U 18071B   25128.97268065  .00000375  00000-0  38222-4 0  9997
2 43619  97.5638  11.4309 0002912  75.1833 284.9711 14.96153745362493
Epoch: 2025-05-08T23:20Z
Definitive object data (Epoch: 2025-05-08T23:20:39.608Z)
Latitude
-0.00002°
Longitude
154.23036°
Altitude
581.324 km
Speed
7.57 km/s
True Right ascension
00h 45m 43s
True Declination
0° 00' 00"
Sunlit
Object was in daylight at TLE epoch
Visualization TLE readout
Latitude
71.9734°
Longitude
130.56053°
Altitude
589.178 km
Speed
7.573 km/s
Apparent Right ascension
01h 19m 52s
Apparent Declination
21° 01' 02"
Sunlit
Object is in daylight
Visualization observer readout
Local Sidereal Time
14:14:17
Azimuth
14.367° NNE
Elevation
-27.758°
Doppler factor
1
Orbital elements
Apogee altitude
577.823 km
Perigee altitude
573.773 km
Semi-major axis
6,953.935 km
Eccentricity
0.0002912
Inclination
97.5638°
RAAN
11.4309°
Arg. of periapsis
75.1833°
True anomaly
284.93886°
Mean anomaly
284.9711°
Eccentric anomaly
284.95498°
Mean motion
3.7428 °/min
BSTAR
0.000038222
Orbital period
96.18 mins
Loading maneuver chart data...
Loading SW <> Apogee altitude chart data...
Loading historical data...
Loading historical data...
Loading historical data...
Loading historical data...
Loading historical data...
Loading historical data...
Loading historical data...
Other satellites on launch #71 in the year 2018 (2018-09-16 UTC)

NOVASAR 1 Visibility forecast

Observer location: undefined°, undefined°

Span
Click to sort rows by Start time (UTC) header in descending order
Start Az.
Max El. time (UTC)
Max El. Az.
Max El.
End time (UTC)
End Az.
6 mins2025-05-09 15:32:30.651Z124.574° SE2025-05-09 15:34:30.651Z86.13° E27.036°2025-05-09 15:38:30.651Z9.142° NNE
4 mins2025-05-09 17:08:30.651Z233.6° WSW2025-05-09 17:10:30.651Z269.247° W17.69°2025-05-09 17:12:30.651Z303.121° NW
6 mins2025-05-10 04:49:30.651Z26.143° NE2025-05-10 04:51:30.651Z90.542° ESE42.024°2025-05-10 04:55:30.651Z182.965° SSW
|